Mars Hill, North Carolina, United States (28754)
Lat: 35.83N, Lon: 82.55W
Wx Zone: NCZ048
Local Info
Past Weather Observations for Today

NOTE: This archive is for the closest National Weather Service station to Mars Hill. Information may differ from the station used for current weather conditions.

Click here for Long-term Archive

Time Weather Temperature Dewpoint Humidity Pressure Winds Precip Visibility
13:54
Mostly Cloudy
79°F / 26°C 64°F / 18°C 61% 30.06 in
(1018 mb)
SSE 10.4 mph
(SSE 17 kph)
- 10SM
12:54
Partly Cloudy
79°F / 26°C 64°F / 18°C 61% 30.09 in
(1019 mb)
SSE 10.4 mph
(SSE 17 kph)
- 10SM
11:54
Mostly Cloudy
79°F / 26°C 63°F / 17°C 58% 30.09 in
(1019 mb)
S 8.1 mph
(S 13 kph)
- 10SM
10:54
Clear
75°F / 24°C 64°F / 18°C 69% 30.12 in
(1020 mb)
SE 5.8 mph
(SE 9 kph)
- 10SM
09:54
Partly Cloudy
73°F / 23°C 64°F / 18°C 74% 30.12 in
(1020 mb)
SSE 6.9 mph
(SSE 11 kph)
- 10SM
09:21
Mostly Cloudy
73°F / 23°C 64°F / 18°C 74% 30.12 in
(1020 mb)
SSE 5.8 mph
(SSE 9 kph)
- 10SM
08:54
Mostly Cloudy
72°F / 22°C 64°F / 18°C 78% 30.12 in
(1020 mb)
SSE 5.8 mph
(SSE 9 kph)
- 10SM
07:54
Overcast
68°F / 20°C 64°F / 18°C 88% 30.15 in
(1021 mb)
Calm 0.00 in
(0.00 mm)
10SM
07:38
Overcast
66°F / 19°C 64°F / 18°C 94% 30.12 in
(1020 mb)
Calm 0.00 in
(0.00 mm)
10SM
07:08
Overcast
Light Rain
66°F / 19°C 64°F / 18°C 94% 30.12 in
(1020 mb)
Calm 0.00 in
(0.00 mm)
9SM
06:54
Overcast
66°F / 19°C 63°F / 17°C 88% 30.12 in
(1020 mb)
Calm - 10SM
06:30
Overcast
66°F / 19°C 63°F / 17°C 88% 30.12 in
(1020 mb)
Calm - 10SM
05:22
Overcast
66°F / 19°C 63°F / 17°C 88% 30.09 in
(1019 mb)
Calm - 10SM
04:54
Overcast
66°F / 19°C 63°F / 17°C 88% 30.09 in
(1019 mb)
Calm - 10SM
04:28
Overcast
66°F / 19°C 63°F / 17°C 88% 30.06 in
(1018 mb)
Calm - 10SM
03:54
Overcast
66°F / 19°C 63°F / 17°C 88% 30.06 in
(1018 mb)
Calm - 10SM
03:47
Mostly Cloudy
66°F / 19°C 63°F / 17°C 88% 30.06 in
(1018 mb)
Calm - 10SM
02:54
Partly Cloudy
64°F / 18°C 63°F / 17°C 94% 30.06 in
(1018 mb)
NNW 4.6 mph
(NNW 7 kph)
- 10SM
01:54
Partly Cloudy
66°F / 19°C 64°F / 18°C 94% 30.06 in
(1018 mb)
Calm - 10SM
00:54
Mostly Cloudy
66°F / 19°C 64°F / 18°C 94% 30.09 in
(1019 mb)
Calm - 10SM
Time Weather Temperature Dewpoint Humidity Pressure Winds Precip Visibility


Weather for websites

WeatherForYou.com, LLC is not responsible for any damages or problems caused by this service. Current weather conditions are obtained from the closest station including government and personal stations which may have varying degrees of accuracy. Weather forecasts are derived from the NOAA NDFD. Like all things, this site belongs to Jesus Christ... He just trusts me to maintain it. If you have any questions or comments email webmaster@weatherforyou.com

Copyright © 2014, WeatherForYou.com LLC. All rights reserved.